Location: Tel Aviv
(32.0670°N, 34.7670°E)
Time: 06:07:11
(UTC+03:00)

Vanguard 1 Rocket - Visible Passes

Search period start: 13 July 2024 00:00
Search period end: 23 July 2024 00:00
Orbit: 650 x 4219 km, 34.3° (Epoch: 12 July)

Date Brightness Start Highest point End Pass type
(mag) Time Alt. Az. Time Alt. Az. Time Alt. Az.
13 Jul 8.6 00:35:40 10° WNW 00:43:35 87° NNE 00:59:53 10° ESE visible
13 Jul 9.6 03:00:28 10° W 03:11:55 57° SSW 03:33:13 10° SE visible
13 Jul 7.1 21:00:21 10° WSW 21:05:00 76° SSE 21:12:23 10° ENE visible
13 Jul 8.2 23:24:20 10° W 23:30:46 78° N 23:43:25 10° E visible
14 Jul 9.0 01:48:36 10° WNW 01:58:05 71° SSW 02:17:09 10° ESE visible
14 Jul 10.3 04:14:50 10° W 04:27:22 36° SSW 04:47:21 10° SSE visible
14 Jul 7.7 22:13:04 10° W 22:18:23 76° N 22:27:55 10° E visible
15 Jul 8.5 00:37:08 10° WNW 00:44:51 86° SSW 01:00:41 10° ESE visible
15 Jul 9.6 03:02:04 10° W 03:13:00 48° SSW 03:32:50 10° SE visible
15 Jul 7.2 21:01:46 10° WSW 21:06:23 89° NNW 21:13:34 10° ENE visible
15 Jul 8.1 23:25:50 10° WNW 23:32:08 81° N 23:44:28 10° E visible
16 Jul 9.1 01:50:06 10° W 01:59:58 60° S 02:17:19 10° SE visible
16 Jul 10.4 04:17:35 12° W 04:28:28 28° SSW 04:45:52 10° SSE visible
16 Jul 7.7 22:14:35 10° W 22:19:49 74° N 22:25:29 22° E visible
17 Jul 8.9 00:38:36 10° WNW 00:55:28 24° ESE 01:01:20 10° ESE visible
17 Jul 9.7 03:12:58 38° SW 03:14:09 38° SSW 03:32:06 10° SSE visible
17 Jul 7.2 21:03:15 10° W 21:07:48 78° N 21:14:46 10° E visible
17 Jul 8.0 23:27:20 10° WNW 23:33:30 88° NNE 23:33:31 88° NNE visible
18 Jul 10.2 02:07:34 32° SSE 02:07:34 32° SSE 02:17:14 10° SE visible
18 Jul 10.3 04:25:01 19° SW 04:29:41 21° SSW 04:43:40 10° S visible
18 Jul 7.6 22:16:06 10° W 22:21:15 75° N 22:24:43 35° E visible
19 Jul 9.6 00:40:06 10° W 01:01:45 10° SE 01:01:48 10° SE visible
19 Jul 10.3 03:19:09 27° S 03:19:09 27° S 03:30:58 10° SSE visible
19 Jul 7.3 21:04:45 10° W 21:09:16 71° N 21:16:01 10° E visible
19 Jul 8.1 23:28:48 10° WNW 23:33:13 58° W 23:33:13 58° W visible
20 Jul 10.9 02:12:58 17° SSE 02:12:58 17° SSE 02:16:51 10° SE visible
20 Jul 10.7 04:30:21 15° SW 04:31:02 15° SSW 04:40:10 10° S visible
20 Jul 7.5 22:17:35 10° WNW 22:22:39 80° N 22:24:40 49° E visible
21 Jul 10.0 00:41:38 10° W 01:06:31 - SE 00:41:49 11° W visible
21 Jul 10.8 03:23:52 17° S 03:23:52 17° S 03:29:13 10° SSE visible
21 Jul 7.2 21:06:15 10° W 21:10:43 70° N 21:16:11 14° E visible
21 Jul 8.6 23:30:16 10° WNW 23:33:21 37° W 23:33:21 37° W visible
22 Jul 7.3 22:19:03 10° WNW 22:24:02 90° NNE 22:24:56 68° ESE visible
